Location: Canazei
(46.4667°N, 11.7667°E)
Time: 18:16:21
(UTC+00:00)

Cosmos 1455 Rocket - Pass Details

Date: 21 April 2021
Orbit: 603 x 631 km, 82.5° (Epoch: 11 May)

Event Time Altitude Azimuth Distance (km) Brightness Sun altitude
Rises 03:21:35 0° 356° (N) 2,884 6.8 -9.3°
Reaches altitude 10° 03:23:55 10° 4° (N) 1,971 6.1 -9.0°
Maximum altitude 03:28:05 43° 76° (ENE) 862 4.5 -8.3°
Drops below altitude 10° 03:32:11 10° 148° (SSE) 1,947 5.7 -7.7°
Sets 03:34:28 0° 155° (SSE) 2,845 6.5 -7.3°
